Location: Newark
(52.3735°N, 16.9806°E)
Time: 05:55:36
(UTC+00:00)

Nauka - Pass Details

Date: 05 October 2021
Orbit: 417 x 423 km, 51.6° (Epoch: 23 October)

Event Time Altitude Azimuth Distance (km) Brightness Sun altitude
Rises 16:44:58 0° 282° (WNW) 2,365 ? -4.7°
Reaches altitude 10° 16:47:15 10° 269° (W) 1,499 ? -5.0°
Maximum altitude 16:50:08 27° 210° (SSW) 844 ? -5.5°
Drops below altitude 10° 16:53:02 10° 151° (SSE) 1,495 ? -5.9°
Sets 16:55:18 0° 139° (SE) 2,357 ? -6.2°
